Location: Appingedam
(53.3222°N, 6.8488°E)
Time: 13:50:12
(UTC+00:00)

Cosmos 1975 - Pass Details

Date: 15 May 2026
Orbit: 471 x 485 km, 82.5° (Epoch: 11 June)

Event Time Altitude Azimuth Distance (km) Brightness Sun altitude
Rises 21:52:46 0° 355° (N) 2,576 7.7 -14.7°
Reaches altitude 10° 21:55:02 10° 4° (N) 1,689 6.3 -14.8°
Maximum altitude 21:58:26 34° 71° (ENE) 825 3.7 -15.0°
Enters shadow 22:00:02 23° 119° (ESE) 1,078 3.9 -15.1°
